E24CR-1 Weather Reports


Display with metric or nautical units.
time (UTC)temp
F
wind
direction
speed
MPH
gust
MPH
rain 1hr
in
rain 24hr
in
rain mn
in
humidity
%
barometer
mb
20260507135808 74 0 0.0 0.0 0.00 0.00 0.00 99 952.0
20260507134744 77 0 0.0 0.0 0.00 0.00 0.00 83 952.0
20260507133720 78 0 0.0 0.0 0.00 0.00 0.00 68 952.0
20260507132655 81 0 0.0 0.0 0.00 0.00 0.00 62 951.0
20260507131630 85 0 0.0 0.0 0.00 0.00 0.00 59 951.0
20260507130605 89 0 0.0 0.0 0.00 0.00 0.00 55 950.0
20260507125537 88 0 0.0 0.0 0.00 0.00 0.00 55 950.0
20260507124510 88 0 0.0 0.0 0.00 0.00 0.00 54 949.0
20260507123442 89 0 0.0 0.0 0.00 0.00 0.00 52 949.0
20260507122416 90 0 0.0 0.0 0.00 0.00 0.00 50 949.0
20260507121350 90 0 0.0 0.0 0.00 0.00 0.00 50 948.0
20260507120323 90 0 0.0 0.0 0.00 0.00 0.00 50 948.0
20260507115257 92 0 0.0 0.0 0.00 0.00 0.00 48 947.0
20260507114231 93 0 0.0 0.0 0.00 0.00 0.00 46 947.0
20260507113205 93 0 0.0 0.0 0.00 0.00 0.00 44 947.0
20260507112140 95 0 0.0 0.0 0.00 0.00 0.00 42 947.0
20260507111114 93 0 0.0 0.0 0.00 0.00 0.00 44 947.0
20260507110047 92 0 0.0 0.0 0.00 0.00 0.00 45 947.0
20260507105022 91 0 0.0 0.0 0.00 0.00 0.00 46 947.0
20260507103956 92 0 0.0 0.0 0.00 0.00 0.00 47 947.0
20260507102930 93 0 0.0 0.0 0.00 0.00 0.00 44 946.0
20260507101904 93 0 0.0 0.0 0.00 0.00 0.00 44 946.0
20260507100838 93 0 0.0 0.0 0.00 0.00 0.00 47 946.0
20260507095812 91 0 0.0 0.0 0.00 0.00 0.00 47 947.0
20260507094747 90 0 0.0 0.0 0.00 0.00 0.00 50 947.0
20260507093722 90 0 0.0 0.0 0.00 0.00 0.00 48 946.0
20260507092656 92 0 0.0 0.0 0.00 0.00 0.00 47 947.0
20260507091631 93 0 0.0 0.0 0.00 0.00 0.00 42 947.0
20260507090606 94 0 0.0 0.0 0.00 0.00 0.00 38 947.0
20260507085540 94 0 0.0 0.0 0.00 0.00 0.00 38 947.0
20260507084513 95 0 0.0 0.0 0.00 0.00 0.00 38 947.0
20260507083110 95 0 0.0 0.0 0.00 0.00 0.00 37 947.0
20260507081943 97 0 0.0 0.0 0.00 0.00 0.00 35 947.0
20260507080919 99 0 0.0 0.0 0.00 0.00 0.00 32 947.0
20260507075853 103 0 0.0 0.0 0.00 0.00 0.00 30 947.0
20260507074827 102 0 0.0 0.0 0.00 0.00 0.00 31 947.0
20260507073801 100 0 0.0 0.0 0.00 0.00 0.00 32 947.0
20260507072736 100 0 0.0 0.0 0.00 0.00 0.00 33 947.0
20260507071710 102 0 0.0 0.0 0.00 0.00 0.00 30 948.0
20260507070645 103 0 0.0 0.0 0.00 0.00 0.00 30 948.0
20260507065620 102 0 0.0 0.0 0.00 0.00 0.00 30 948.0
20260507064555 104 0 0.0 0.0 0.00 0.00 0.00 30 948.0
20260507063529 106 0 0.0 0.0 0.00 0.00 0.00 31 949.0
20260507062504 102 0 0.0 0.0 0.00 0.00 0.00 27 949.0
20260507061438 105 0 0.0 0.0 0.00 0.00 0.00 27 949.0
20260507060411 105 0 0.0 0.0 0.00 0.00 0.00 29 949.0
20260507055345 101 0 0.0 0.0 0.00 0.00 0.00 31 950.0
20260507054316 103 0 0.0 0.0 0.00 0.00 0.00 30 950.0
20260507053249 105 0 0.0 0.0 0.00 0.00 0.00 31 950.0
20260507052222 107 0 0.0 0.0 0.00 0.00 0.00 31 950.0
20260507051156 102 0 0.0 0.0 0.00 0.00 0.00 37 951.0
20260507050129 101 0 0.0 0.0 0.00 0.00 0.00 38 951.0
20260507045103 101 0 0.0 0.0 0.00 0.00 0.00 40 951.0
20260507044036 99 0 0.0 0.0 0.00 0.00 0.00 41 951.0
20260507043010 98 0 0.0 0.0 0.00 0.00 0.00 43 951.0
20260507041945 97 0 0.0 0.0 0.00 0.00 0.00 44 951.0
20260507040920 100 0 0.0 0.0 0.00 0.00 0.00 44 951.0
20260507035854 97 0 0.0 0.0 0.00 0.00 0.00 46 951.0
20260507034827 97 0 0.0 0.0 0.00 0.00 0.00 49 951.0
20260507033803 95 0 0.0 0.0 0.00 0.00 0.00 51 952.0
20260507032738 95 0 0.0 0.0 0.00 0.00 0.00 52 952.0
20260507031712 94 0 0.0 0.0 0.00 0.00 0.00 52 952.0
20260507030648 94 0 0.0 0.0 0.00 0.00 0.00 55 952.0
20260507025623 92 0 0.0 0.0 0.00 0.00 0.00 57 952.0
20260507024558 92 0 0.0 0.0 0.00 0.00 0.00 58 952.0
20260507023531 91 0 0.0 0.0 0.00 0.00 0.00 62 952.0
20260507022504 90 0 0.0 0.0 0.00 0.00 0.00 61 952.0
20260507021438 90 0 0.0 0.0 0.00 0.00 0.00 63 952.0
20260507020413 89 0 0.0 0.0 0.00 0.00 0.00 63 952.0
20260507015347 89 0 0.0 0.0 0.00 0.00 0.00 61 952.0
20260507014323 90 0 0.0 0.0 0.00 0.00 0.00 60 952.0
20260507013258 88 0 0.0 0.0 0.00 0.00 0.00 67 952.0
20260507012234 86 0 0.0 0.0 0.00 0.00 0.00 76 952.0
20260507011208 84 0 0.0 0.0 0.00 0.00 0.00 82 952.0
20260507010143 85 0 0.0 0.0 0.00 0.00 0.00 74 952.0
20260507005118 84 0 0.0 0.0 0.00 0.00 0.00 76 952.0
20260507004049 84 0 0.0 0.0 0.00 0.00 0.00 74 952.0
20260507003024 82 0 0.0 0.0 0.00 0.00 0.00 80 952.0
20260507002000 81 0 0.0 0.0 0.00 0.00 0.00 87 952.0
20260507000935 81 0 0.0 0.0 0.00 0.00 0.00 78 952.0
20260506235909 80 0 0.0 0.0 0.00 0.00 0.00 79 952.0
20260506234845 79 0 0.0 0.0 0.00 0.00 0.00 80 952.0
20260506233819 79 0 0.0 0.0 0.00 0.00 0.00 81 952.0
20260506232753 79 0 0.0 0.0 0.00 0.00 0.00 82 951.0
20260506231729 79 0 0.0 0.0 0.00 0.00 0.00 81 951.0
20260506230657 80 0 0.0 0.0 0.00 0.00 0.00 77 951.0
20260506225630 81 0 0.0 0.0 0.00 0.00 0.00 73 951.0
20260506224605 82 0 0.0 0.0 0.00 0.00 0.00 74 951.0
20260506223540 82 0 0.0 0.0 0.00 0.00 0.00 74 951.0
20260506222515 82 0 0.0 0.0 0.00 0.00 0.00 73 951.0
20260506221450 82 0 0.0 0.0 0.00 0.00 0.00 73 951.0
20260506220425 81 0 0.0 0.0 0.00 0.00 0.00 76 951.0
20260506215400 79 0 0.0 0.0 0.00 0.00 0.00 84 951.0
20260506214336 80 0 0.0 0.0 0.00 0.00 0.00 78 951.0
20260506213311 81 0 0.0 0.0 0.00 0.00 0.00 78 951.0
20260506212243 82 0 0.0 0.0 0.00 0.00 0.00 76 951.0
20260506211730 81 0 0.0 0.0 0.00 0.00 0.00 77 951.0
20260506210706 82 0 0.0 0.0 0.00 0.00 0.00 70 951.0
20260506205641 83 0 0.0 0.0 0.00 0.00 0.00 68 950.0
20260506204616 83 0 0.0 0.0 0.00 0.00 0.00 66 950.0
20260506203551 83 0 0.0 0.0 0.00 0.00 0.00 67 950.0
20260506202524 82 0 0.0 0.0 0.00 0.00 0.00 69 950.0
20260506201458 81 0 0.0 0.0 0.00 0.00 0.00 72 950.0
20260506200433 82 0 0.0 0.0 0.00 0.00 0.00 70 950.0
20260506195408 82 0 0.0 0.0 0.00 0.00 0.00 70 950.0
20260506194343 82 0 0.0 0.0 0.00 0.00 0.00 72 950.0
20260506193318 82 0 0.0 0.0 0.00 0.00 0.00 72 950.0
20260506192252 83 0 0.0 0.0 0.00 0.00 0.00 71 950.0
20260506191227 83 0 0.0 0.0 0.00 0.00 0.00 71 950.0
20260506190202 84 0 0.0 0.0 0.00 0.00 0.00 70 950.0
20260506185137 83 0 0.0 0.0 0.00 0.00 0.00 70 950.0
20260506184112 83 0 0.0 0.0 0.00 0.00 0.00 72 950.0
20260506183046 81 0 0.0 0.0 0.00 0.00 0.00 77 950.0
20260506182021 83 0 0.0 0.0 0.00 0.00 0.00 71 950.0
20260506180953 81 0 0.0 0.0 0.00 0.00 0.00 78 950.0
20260506180607 80 0 0.0 0.0 0.00 0.00 0.00 83 950.0
20260506175542 79 0 0.0 0.0 0.00 0.00 0.00 87 951.0
20260506174518 80 0 0.0 0.0 0.00 0.00 0.00 81 951.0
20260506173452 81 0 0.0 0.0 0.00 0.00 0.00 77 951.0
20260506172427 80 0 0.0 0.0 0.00 0.00 0.00 79 951.0
20260506171402 77 0 0.0 0.0 0.00 0.00 0.00 95 951.0
20260506170338 77 0 0.0 0.0 0.00 0.00 0.00 96 951.0
20260506165313 77 0 0.0 0.0 0.00 0.00 0.00 89 951.0
20260506164248 81 0 0.0 0.0 0.00 0.00 0.00 73 951.0
20260506163223 78 0 0.0 0.0 0.00 0.00 0.00 88 951.0
20260506162158 79 0 0.0 0.0 0.00 0.00 0.00 93 951.0
20260506161133 85 0 0.0 0.0 0.00 0.00 0.00 58 951.0
20260506160106 85 0 0.0 0.0 0.00 0.00 0.00 58 951.0
20260506155040 85 0 0.0 0.0 0.00 0.00 0.00 57 951.0
20260506153905 86 0 0.0 0.0 0.00 0.00 0.00 55 951.0
20260506152840 88 0 0.0 0.0 0.00 0.00 0.00 52 951.0
20260506151815 86 0 0.0 0.0 0.00 0.00 0.00 55 951.0
20260506150748 87 0 0.0 0.0 0.00 0.00 0.00 53 951.0
20260506145625 88 0 0.0 0.0 0.00 0.00 0.00 52 951.0
20260506144600 87 0 0.0 0.0 0.00 0.00 0.00 54 951.0
20260506143535 87 0 0.0 0.0 0.00 0.00 0.00 54 950.0
20260506142510 89 0 0.0 0.0 0.00 0.00 0.00 51 950.0
20260506141443 90 0 0.0 0.0 0.00 0.00 0.00 48 950.0